Location: Evenskjer
(68.5830°N, 16.5670°E)
Time: 05:30:52
(UTC+02:00)

N. Korean satellite - Visible Passes

Search period start: 18 October 2019 00:00
Search period end: 27 October 2019 23:00
Orbit: 455 x 508 km, 97.2° (Epoch: 16 October)

Date Brightness Start Highest point End Pass type
(mag) Time Alt. Az. Time Alt. Az. Time Alt. Az.
18 Oct 9.6 06:00:16 10° NE 06:02:59 20° E 06:05:43 10° SE visible
18 Oct 8.8 18:22:53 10° SSW 18:25:58 30° W 18:29:07 10° NNW visible
19 Oct 10.1 05:35:20 10° NE 05:37:23 14° E 05:39:27 10° ESE visible
19 Oct 7.5 07:08:03 10° NNE 07:11:34 54° ESE 07:15:07 10° S visible
19 Oct 8.0 17:57:10 10° S 18:00:30 44° W 18:03:54 10° NNW visible
19 Oct 10.3 19:33:32 10° W 19:34:50 12° WNW 19:36:10 10° NW visible
20 Oct 10.5 05:11:14 10° ENE 05:11:44 10° ENE 05:12:13 10° E visible
20 Oct 8.4 06:42:47 10° NNE 06:46:08 37° E 06:49:32 10° SSE visible
20 Oct 9.9 19:06:52 10° SW 19:09:11 17° W 19:11:32 10° NW visible
21 Oct 9.2 06:17:35 10° NNE 06:20:39 26° E 06:23:44 10° SSE visible
21 Oct 9.3 18:40:44 10° SW 18:43:36 23° W 18:46:30 10° NW visible
22 Oct 9.8 05:52:29 10° NE 05:55:05 18° E 05:57:42 10° SE visible
22 Oct 8.6 18:14:53 10° SSW 18:18:05 33° W 18:21:21 10° NNW visible
23 Oct 10.2 05:27:38 10° NE 05:29:28 13° E 05:31:18 10° ESE visible
23 Oct 7.8 07:00:12 10° NNE 07:03:42 48° ESE 07:07:15 10° S visible
23 Oct 7.7 17:49:13 10° S 17:52:37 49° WSW 17:56:06 10° NNW visible
23 Oct 10.1 19:25:08 10° WSW 19:26:53 13° W 19:28:39 10° NW visible
24 Oct 8.6 06:34:56 10° NNE 06:38:15 33° E 06:41:37 10° SSE visible
24 Oct 9.7 18:58:42 10° SW 19:01:15 19° W 19:03:49 10° NW visible
25 Oct 9.3 06:09:45 10° NE 06:12:44 24° E 06:15:45 10° SE visible
25 Oct 9.1 18:32:39 10° SSW 18:35:40 26° W 18:38:44 10° NNW visible
26 Oct 9.9 05:44:41 10° NE 05:47:09 17° E 05:49:37 10° SE visible
26 Oct 7.2 07:17:37 10° NNE 07:21:14 64° ESE 07:24:54 10° S visible
26 Oct 8.3 18:06:51 10° SSW 18:10:09 38° W 18:13:32 10° NNW visible
26 Oct 10.5 19:43:56 10° W 19:44:35 10° WNW 19:45:14 10° WNW visible
27 Oct 10.3 04:19:58 10° NE 04:21:30 12° ENE 04:23:02 10° ESE visible
27 Oct 8.0 05:52:18 10° NNE 05:55:49 43° E 05:59:21 10° S visible
27 Oct 7.4 16:41:14 10° S 16:44:42 56° WSW 16:48:15 10° NNW visible
27 Oct 10.0 18:16:48 10° WSW 18:18:53 15° W 18:21:00 10° NW visible
